This is the latest recevied weather packets stored in our database for station/object N4DWK. If no packets are shown the sender has not sent any weather packets the latest 10 day(s).
| Time | Temp. | Humidity | Pressure | Rain* | Wind** | Luminosity | Snow |
|---|---|---|---|---|---|---|---|
| 1777555504 | 15.56° C | 88% | 1010.1 hPa | 0 mm | - | 74 W/m² | - |
| 1777555205 | 15.56° C | 89% | 1010 hPa | 0 mm | - | 67 W/m² | - |
| 1777554904 | 15.56° C | 90% | 1010.1 hPa | 0 mm | - | 72 W/m² | - |
| 1777554604 | 15.56° C | 91% | 1009.8 hPa | 0 mm | - | 74 W/m² | - |
| 1777554304 | 15° C | 92% | 1009.6 hPa | 0 mm | - | 74 W/m² | - |
| 1777554004 | 15° C | 93% | 1009.5 hPa | 0 mm | - | 79 W/m² | - |
| 1777553705 | 15° C | 93% | 1009.2 hPa | 0 mm | - | 83 W/m² | - |
| 1777553405 | 15° C | 94% | 1008.8 hPa | 0 mm | - | 69 W/m² | - |
| 1777553104 | 15° C | 94% | 1008.7 hPa | 0 mm | - | 91 W/m² | - |
| 1777552804 | 15° C | 94% | 1008.3 hPa | 0 mm | - | 42 W/m² | - |
| 1777552504 | 15° C | 94% | 1008.6 hPa | 0 mm | - | 54 W/m² | - |
| 1777552204 | 15° C | 94% | 1008.9 hPa | 0 mm | - | 65 W/m² | - |
| 1777551904 | 15° C | 94% | 1009 hPa | 0 mm | - | 62 W/m² | - |
| 1777551604 | 15° C | 94% | 1009 hPa | 0 mm | - | 49 W/m² | - |
| 1777551304 | 15° C | 94% | 1009 hPa | 0 mm | - | 62 W/m² | - |
| 1777551004 | 15° C | 93% | 1008.7 hPa | 0 mm | - | 58 W/m² | - |
| 1777550704 | 15° C | 93% | 1008.6 hPa | 0 mm | - | 58 W/m² | - |
| 1777550404 | 14.44° C | 93% | 1008.9 hPa | 0 mm | - | 51 W/m² | - |
| 1777550104 | 14.44° C | 94% | 1009 hPa | 0 mm | - | 47 W/m² | - |
| 1777549804 | 14.44° C | 94% | 1009.2 hPa | 0 mm | - | 51 W/m² | - |
| 1777549504 | 14.44° C | 94% | 1009.4 hPa | 0 mm | - | 32 W/m² | - |
| 1777549204 | 14.44° C | 94% | 1009.4 hPa | 0 mm | - | 23 W/m² | - |
| 1777548904 | 14.44° C | 94% | 1009.4 hPa | 0 mm | - | 19 W/m² | - |
| 1777548604 | 14.44° C | 94% | 1009.3 hPa | 0 mm | - | 16 W/m² | - |
| 1777548304 | 14.44° C | 94% | 1009.4 hPa | 0 mm | - | 19 W/m² | - |
* Rain latest hour (hover to see other rain measurements)
** Current wind speed in m/s (hover to see current wind gust speed)